Вернуться в каталог

KOMPSAT 2

АктивенНаукаSSO
NORAD 29268·PAYLOAD·🇰🇷 South Korea

Запущен Jul 28, 2006 с Plesetsk Cosmodrome

Loading…

Ближайшие Пролёты (ближайшие 24 часа)

TLE

СвежийSource: Space-Track

Эпоха: Sep 14, 2026, 13:59 UTC

1 29268U 06031A   26257.58277966  .00000294  00000-0  63689-4 0  9990
2 29268  97.8332  77.7296 0015021 145.0888 286.1153 14.64704792 74564

Отслеживайте KOMPSAT 2 в реальном времени с AllMySat

Download on the App Store